Location: Altmatt
(47.1333°N, 8.7000°E)
Time: 01:35:24
(UTC+00:00)

USA 81 - Pass Details

Date: 13 July 2020
Orbit: 786 x 788 km, 85.0° (Epoch: 17 July)

Event Time Altitude Azimuth Distance (km) Brightness Sun altitude
Rises 20:32:22 0° 191° (SSW) 3,265 6.9 -10.3°
Reaches altitude 10° 20:34:44 10° 194° (SSW) 2,340 6.2 -10.6°
Maximum altitude 20:39:58 68° 277° (W) 850 4.4 -11.2°
Drops below altitude 10° 20:45:14 10° 1° (N) 2,357 7.3 -11.7°
Sets 20:47:38 0° 4° (N) 3,291 8.1 -12.0°
